Time,TemperatureF,DewpointF,PressureIn,WindDirection,WindDirectionDegrees,WindSpeedMPH,WindSpeedGustMPH,Humidity,HourlyPrecipIn,Conditions,Clouds,dailyrainin,SoftwareType,DateUTC
2017-05-23 00:08:00,55.5,53.0,29.95,NW,305,0.0,3.0,91,0.00,,,0.00,weatherlink.com 1.10,2017-05-23 04:08:00,
2017-05-23 00:23:00,54.8,52.0,29.93,WNW,296,2.0,5.0,90,0.00,,,0.00,weatherlink.com 1.10,2017-05-23 04:23:00,
2017-05-23 00:38:00,54.8,52.0,29.93,NNW,333,0.0,2.0,89,0.00,,,0.00,weatherlink.com 1.10,2017-05-23 04:38:00,
2017-05-23 00:53:00,54.2,51.0,29.93,East,96,2.0,3.0,88,0.00,,,0.00,weatherlink.com 1.10,2017-05-23 04:53:00,
2017-05-23 01:08:00,55.3,52.0,29.93,NE,51,0.0,3.0,88,0.00,,,0.00,weatherlink.com 1.10,2017-05-23 05:08:00,
2017-05-23 01:23:00,54.2,51.0,29.93,North,5,0.0,2.0,88,0.00,,,0.00,weatherlink.com 1.10,2017-05-23 05:23:00,
2017-05-23 01:38:00,53.5,50.0,29.93,North,5,1.0,3.0,88,0.00,,,0.00,weatherlink.com 1.10,2017-05-23 05:38:00,
2017-05-23 01:53:00,53.2,50.0,29.93,North,5,0.0,1.0,88,0.00,,,0.00,weatherlink.com 1.10,2017-05-23 05:53:00,
2017-05-23 02:08:00,52.7,49.0,29.92,North,360,2.0,3.0,88,0.00,,,0.00,weatherlink.com 1.10,2017-05-23 06:08:00,
2017-05-23 02:23:00,52.3,49.0,29.92,NW,314,3.0,8.0,88,0.00,,,0.00,weatherlink.com 1.10,2017-05-23 06:23:00,
2017-05-23 02:38:00,51.8,49.0,29.91,East,89,0.0,3.0,89,0.00,,,0.00,weatherlink.com 1.10,2017-05-23 06:38:00,
2017-05-23 02:54:00,51.9,49.0,29.92,NE,40,0.0,2.0,89,0.00,,,0.00,weatherlink.com 1.10,2017-05-23 06:54:00,
2017-05-23 03:08:00,51.8,49.0,29.92,NE,40,0.0,1.0,91,0.00,,,0.00,weatherlink.com 1.10,2017-05-23 07:08:00,
2017-05-23 03:23:00,51.7,49.0,29.92,NE,40,1.0,1.0,90,0.00,,,0.00,weatherlink.com 1.10,2017-05-23 07:23:00,
2017-05-23 03:39:00,51.6,49.0,29.92,NE,40,0.0,2.0,91,0.00,,,0.00,weatherlink.com 1.10,2017-05-23 07:39:00,
2017-05-23 03:54:00,51.7,49.0,29.91,East,101,4.0,4.0,90,0.00,,,0.00,weatherlink.com 1.10,2017-05-23 07:54:00,
2017-05-23 04:09:00,51.2,48.0,29.92,SE,132,3.0,7.0,90,0.00,,,0.00,weatherlink.com 1.10,2017-05-23 08:09:00,
2017-05-23 04:24:00,50.8,49.0,29.92,SSE,157,2.0,8.0,92,0.00,,,0.00,weatherlink.com 1.10,2017-05-23 08:24:00,
2017-05-23 04:39:00,51.1,50.0,29.92,SSE,164,4.0,5.0,94,0.00,,,0.00,weatherlink.com 1.10,2017-05-23 08:39:00,
2017-05-23 04:54:00,51.3,49.0,29.91,ESE,113,1.0,4.0,93,0.00,,,0.00,weatherlink.com 1.10,2017-05-23 08:54:00,
2017-05-23 05:09:00,51.0,49.0,29.90,North,5,1.0,3.0,94,0.00,,,0.00,weatherlink.com 1.10,2017-05-23 09:09:00,
2017-05-23 05:24:00,50.6,49.0,29.91,NE,45,3.0,4.0,93,0.00,,,0.00,weatherlink.com 1.10,2017-05-23 09:24:00,
2017-05-23 05:39:00,49.9,48.0,29.91,NNE,26,0.0,3.0,93,0.00,,,0.00,weatherlink.com 1.10,2017-05-23 09:39:00,
2017-05-23 05:54:00,50.2,48.0,29.91,ENE,70,2.0,4.0,93,0.00,,,0.00,weatherlink.com 1.10,2017-05-23 09:54:00,
2017-05-23 06:09:00,50.6,48.0,29.91,East,101,2.0,4.0,91,0.00,,,0.00,weatherlink.com 1.10,2017-05-23 10:09:00,
2017-05-23 06:24:00,50.6,48.0,29.91,East,99,3.0,4.0,91,0.00,,,0.00,weatherlink.com 1.10,2017-05-23 10:24:00,
2017-05-23 06:54:00,52.6,49.0,29.91,ENE,63,1.0,4.0,86,0.00,,,0.00,weatherlink.com 1.10,2017-05-23 10:54:00,
2017-05-23 07:09:00,53.2,50.0,29.91,NE,55,1.0,4.0,87,0.00,,,0.00,weatherlink.com 1.10,2017-05-23 11:09:00,
2017-05-23 07:24:00,53.5,49.0,29.91,NE,36,0.0,4.0,85,0.00,,,0.00,weatherlink.com 1.10,2017-05-23 11:24:00,
2017-05-23 07:39:00,54.3,51.0,29.91,NE,36,1.0,2.0,87,0.00,,,0.00,weatherlink.com 1.10,2017-05-23 11:39:00,
2017-05-23 07:54:00,55.0,51.0,29.91,NE,34,1.0,3.0,87,0.00,,,0.00,weatherlink.com 1.10,2017-05-23 11:54:00,
2017-05-23 08:09:00,55.6,51.0,29.92,NW,318,0.0,2.0,85,0.00,,,0.00,weatherlink.com 1.10,2017-05-23 12:09:00,
2017-05-23 08:24:00,56.3,52.0,29.92,NW,318,1.0,3.0,86,0.00,,,0.00,weatherlink.com 1.10,2017-05-23 12:24:00,
2017-05-23 08:39:00,56.3,52.0,29.92,North,350,1.0,4.0,85,0.00,,,0.00,weatherlink.com 1.10,2017-05-23 12:39:00,
2017-05-23 08:54:00,56.4,51.0,29.93,North,355,0.0,4.0,82,0.00,,,0.00,weatherlink.com 1.10,2017-05-23 12:54:00,
2017-05-23 09:09:00,56.7,51.0,29.94,NW,309,0.0,2.0,81,0.00,,,0.00,weatherlink.com 1.10,2017-05-23 13:09:00,
2017-05-23 09:24:00,57.3,52.0,29.93,NW,304,2.0,3.0,81,0.00,,,0.00,weatherlink.com 1.10,2017-05-23 13:24:00,
2017-05-23 09:39:00,58.6,52.0,29.92,ENE,58,4.0,6.0,79,0.00,,,0.00,weatherlink.com 1.10,2017-05-23 13:39:00,
2017-05-23 09:54:00,59.4,51.0,29.91,NNW,344,6.0,11.0,75,0.00,,,0.00,weatherlink.com 1.10,2017-05-23 13:54:00,
2017-05-23 10:09:00,59.8,52.0,29.91,NNW,338,8.0,10.0,74,0.00,,,0.00,weatherlink.com 1.10,2017-05-23 14:09:00,
2017-05-23 10:24:00,60.4,51.0,29.91,North,10,9.0,13.0,72,0.00,,,0.00,weatherlink.com 1.10,2017-05-23 14:24:00,
2017-05-23 10:39:00,61.2,50.0,29.92,North,11,7.0,14.0,67,0.00,,,0.00,weatherlink.com 1.10,2017-05-23 14:39:00,
2017-05-23 10:54:00,62.0,50.0,29.91,North,5,9.0,14.0,65,0.00,,,0.00,weatherlink.com 1.10,2017-05-23 14:54:00,
2017-05-23 11:09:00,62.8,52.0,29.91,North,360,10.0,14.0,68,0.00,,,0.00,weatherlink.com 1.10,2017-05-23 15:09:00,
2017-05-23 11:24:00,62.4,50.0,29.90,North,360,5.0,11.0,65,0.00,,,0.00,weatherlink.com 1.10,2017-05-23 15:24:00,
2017-05-23 11:39:00,62.1,51.0,29.90,NE,55,0.0,6.0,67,0.00,,,0.00,weatherlink.com 1.10,2017-05-23 15:39:00,
2017-05-23 12:09:00,62.5,51.0,29.89,East,94,2.0,6.0,67,0.00,,,0.00,weatherlink.com 1.10,2017-05-23 16:09:00,
2017-05-23 12:24:00,62.6,51.0,29.89,East,86,3.0,10.0,65,0.00,,,0.00,weatherlink.com 1.10,2017-05-23 16:24:00,
2017-05-23 12:40:00,62.7,52.0,29.89,NNE,28,5.0,8.0,67,0.00,,,0.00,weatherlink.com 1.10,2017-05-23 16:40:00,
2017-05-23 12:55:00,62.7,51.0,29.89,ESE,111,6.0,10.0,66,0.00,,,0.00,weatherlink.com 1.10,2017-05-23 16:55:00,
2017-05-23 13:10:00,62.9,52.0,29.87,ENE,74,0.0,7.0,68,0.00,,,0.00,weatherlink.com 1.10,2017-05-23 17:10:00,
2017-05-23 13:25:00,63.0,53.0,29.87,NE,34,0.0,7.0,70,0.00,,,0.00,weatherlink.com 1.10,2017-05-23 17:25:00,
2017-05-23 13:40:00,63.1,53.0,29.86,ESE,109,1.0,5.0,70,0.00,,,0.00,weatherlink.com 1.10,2017-05-23 17:40:00,
2017-05-23 13:55:00,62.6,52.0,29.86,East,98,2.0,7.0,69,0.00,,,0.00,weatherlink.com 1.10,2017-05-23 17:55:00,
2017-05-23 14:10:00,62.7,53.0,29.86,East,85,1.0,5.0,71,0.00,,,0.00,weatherlink.com 1.10,2017-05-23 18:10:00,
2017-05-23 14:25:00,63.0,52.0,29.86,NE,51,1.0,4.0,68,0.00,,,0.00,weatherlink.com 1.10,2017-05-23 18:25:00,
2017-05-23 14:40:00,63.4,52.0,29.85,ENE,74,0.0,4.0,66,0.00,,,0.00,weatherlink.com 1.10,2017-05-23 18:40:00,
2017-05-23 14:55:00,63.6,53.0,29.84,North,9,0.0,8.0,69,0.00,,,0.00,weatherlink.com 1.10,2017-05-23 18:55:00,
2017-05-23 15:10:00,63.8,53.0,29.84,SE,140,2.0,4.0,68,0.00,,,0.00,weatherlink.com 1.10,2017-05-23 19:10:00,
2017-05-23 15:25:00,64.3,52.0,29.84,SE,131,3.0,5.0,65,0.00,,,0.00,weatherlink.com 1.10,2017-05-23 19:25:00,
2017-05-23 15:40:00,63.9,53.0,29.82,NE,46,3.0,7.0,67,0.00,,,0.00,weatherlink.com 1.10,2017-05-23 19:40:00,